Eastsound, WA
on Saturday, November 17, 2012

Saturday
Previous Day Next Day
Daily Summary
 ActualAverage (KBLI)Record (KBLI)
Temperature
Mean Temperature °F 43°F  
Max Temperature 57°F 49°F 65°F (1995)
Min Temperature 44°F 37°F 13°F (1955)
Degree Days
Heating Degree Days 14 22  
Month to date heating degree days 345  
Cooling Degree Days 0 0  
Month to date cooling degree days 0  
Year to date cooling degree days 42  
Moisture
Dew Point 43°F   
Average Humidity 79    
Maximum Humidity 100    
Minimum Humidity 54    
Precipitation
Precipitation 0.01 in 0.20 in 1.45 in (1959)
Month to date precipitation 3.35  
Year to date precipitation 29.16  
Wind
Wind Speed 10 mph   
Max Wind Speed 20 mph   
Max Gust Speed 31 mph   
Visibility 9 miles   
Events Rain   

Key: T is trace of precipitation, MM is missing value
Source: NWS Daily Summary
Time(PST)TemperatureDew PointHumidity Pressure Visibility Wind DirectionWind SpeedGust SpeedPrecipitationEvents Conditions
12:15 AM 53.6°F 44.6°F 72% 29.60 in 10.0 miles South 12.7 mph 21.9 mph N/A   Clear
12:35 AM 53.6°F 44.6°F 72% 29.59 in 10.0 miles South 10.4 mph 17.3 mph N/A   Clear
12:55 AM 53.6°F 44.6°F 72% 29.58 in 10.0 miles South 10.4 mph 20.7 mph N/A   Clear
1:15 AM 53.6°F 44.6°F 72% 29.57 in 10.0 miles SSE 15.0 mph 26.5 mph N/A   Clear
1:35 AM 53.6°F 44.6°F 72% 29.56 in 10.0 miles South 11.5 mph 23.0 mph N/A   Clear
1:55 AM 53.6°F 44.6°F 72% 29.56 in 10.0 miles South 13.8 mph 23.0 mph N/A   Clear
2:15 AM 53.6°F 44.6°F 72% 29.55 in 10.0 miles South 10.4 mph 20.7 mph N/A   Clear
2:35 AM 53.6°F 44.6°F 72% 29.54 in 10.0 miles South 12.7 mph 20.7 mph N/A   Clear
2:55 AM 53.6°F 44.6°F 72% 29.53 in 10.0 miles South 10.4 mph 17.3 mph N/A   Clear
3:15 AM 53.6°F 44.6°F 72% 29.51 in 10.0 miles South 12.7 mph 24.2 mph N/A   Clear
3:35 AM 55.4°F 44.6°F 67% 29.51 in 10.0 miles South 10.4 mph 23.0 mph N/A   Clear
3:55 AM 55.4°F 44.6°F 67% 29.50 in 10.0 miles South 9.2 mph 23.0 mph N/A   Clear
4:15 AM 55.4°F 44.6°F 67% 29.48 in 10.0 miles SSE 11.5 mph 29.9 mph N/A   Clear
4:35 AM 55.4°F 44.6°F 67% 29.48 in 10.0 miles South 11.5 mph 31.1 mph N/A   Clear
4:55 AM 53.6°F 44.6°F 72% 29.48 in 10.0 miles South 11.5 mph 18.4 mph N/A   Clear
5:15 AM 55.4°F 42.8°F 63% 29.47 in 10.0 miles South 13.8 mph 26.5 mph N/A   Partly Cloudy
5:35 AM 55.4°F 42.8°F 63% 29.46 in 10.0 miles South 10.4 mph 23.0 mph N/A   Clear
5:55 AM 55.4°F 42.8°F 63% 29.46 in 10.0 miles South 10.4 mph 20.7 mph N/A   Clear
6:15 AM 53.6°F 44.6°F 72% 29.46 in 9.0 miles SSE 9.2 mph 17.3 mph N/A Rain Light Rain
6:35 AM 51.8°F 41.0°F 67% 29.45 in 10.0 miles South 8.1 mph - N/A   Partly Cloudy
6:55 AM 53.6°F 41.0°F 62% 29.44 in 10.0 miles South 12.7 mph 25.3 mph N/A   Clear
7:15 AM 53.6°F 41.0°F 62% 29.44 in 10.0 miles South 8.1 mph 19.6 mph N/A Rain Light Rain
7:35 AM 53.6°F 41.0°F 62% 29.43 in 10.0 miles South 12.7 mph 20.7 mph N/A   Clear
7:55 AM 53.6°F 41.0°F 62% 29.41 in 10.0 miles South 12.7 mph 28.8 mph N/A   Clear
8:15 AM 53.6°F 39.2°F 58% 29.40 in 10.0 miles South 11.5 mph 25.3 mph N/A   Clear
8:35 AM 55.4°F 39.2°F 54% 29.38 in 10.0 miles SSE 12.7 mph 31.1 mph N/A   Clear
9:55 AM 57.2°F 41.0°F 55% 29.37 in 10.0 miles South 13.8 mph 24.2 mph N/A   Clear
10:15 AM 57.2°F 42.8°F 59% 29.39 in 10.0 miles South 11.5 mph 20.7 mph N/A   Clear
10:35 AM 57.2°F 42.8°F 59% 29.40 in 10.0 miles South 13.8 mph 21.9 mph N/A   Scattered Clouds
10:55 AM 57.2°F 41.0°F 55% 29.41 in 10.0 miles SSW 19.6 mph 29.9 mph N/A   Overcast
11:15 AM 55.4°F 42.8°F 63% 29.43 in 10.0 miles South 16.1 mph 27.6 mph N/A   Overcast
11:35 AM 53.6°F 44.6°F 72% 29.45 in 9.0 miles WSW 10.4 mph 16.1 mph N/A   Overcast
11:55 AM 48.2°F 44.6°F 87% 29.46 in 2.0 miles SSW 4.6 mph - N/A Rain Light Rain
12:15 PM 48.2°F 46.4°F 93% 29.46 in 3.0 miles SSW 6.9 mph - N/A Rain Light Rain
12:35 PM 46.4°F 44.6°F 93% 29.47 in 3.0 miles Calm Calm - N/A Rain Light Rain
12:55 PM 46.4°F 44.6°F 93% 29.48 in 3.0 miles WSW 4.6 mph - N/A Rain Light Rain
1:15 PM 46.4°F 44.6°F 93% 29.49 in 2.5 miles Calm Calm - 0.01 in Rain Rain
2:15 PM 44.6°F 42.8°F 93% 29.48 in 7.0 miles North - - N/A Rain Light Rain
2:35 PM 44.6°F 44.6°F 100% 29.48 in 10.0 miles Calm Calm - N/A Rain Light Rain
2:55 PM 44.6°F 44.6°F 100% 29.48 in 10.0 miles Calm Calm - N/A   Clear
3:15 PM 44.6°F 44.6°F 100% 29.49 in 10.0 miles Calm Calm - N/A Rain Light Rain
3:35 PM 44.6°F 44.6°F 100% 29.51 in 10.0 miles Calm Calm - N/A   Partly Cloudy
3:55 PM 44.6°F 44.6°F 100% 29.52 in 5.0 miles Calm Calm - N/A Rain Light Rain
4:15 PM 44.6°F 44.6°F 100% 29.52 in 10.0 miles Calm Calm - N/A   Partly Cloudy
4:35 PM 44.6°F 44.6°F 100% 29.53 in 10.0 miles North - - N/A   Partly Cloudy
4:55 PM 44.6°F 44.6°F 100% 29.53 in 10.0 miles SSW 6.9 mph - N/A   Scattered Clouds
5:15 PM 44.6°F 44.6°F 100% 29.54 in 10.0 miles South 8.1 mph - N/A   Partly Cloudy
5:35 PM 44.6°F 42.8°F 93% 29.55 in 10.0 miles Calm Calm - N/A   Scattered Clouds
5:55 PM 44.6°F 42.8°F 93% 29.55 in 10.0 miles South 6.9 mph - N/A   Mostly Cloudy
6:15 PM 44.6°F 41.0°F 87% 29.54 in 10.0 miles SE 6.9 mph - N/A   Scattered Clouds
6:35 PM 44.6°F 41.0°F 87% 29.55 in 10.0 miles South 5.8 mph - N/A   Scattered Clouds
6:55 PM 44.6°F 41.0°F 87% 29.54 in 10.0 miles South 9.2 mph 16.1 mph N/A   Scattered Clouds
7:15 PM 44.6°F 41.0°F 87% 29.54 in 10.0 miles South 11.5 mph 20.7 mph N/A   Mostly Cloudy
7:35 PM 44.6°F 41.0°F 87% 29.54 in 10.0 miles South 12.7 mph 20.7 mph N/A   Overcast
7:55 PM 46.4°F 41.0°F 81% 29.55 in 10.0 miles South 10.4 mph 19.6 mph N/A   Mostly Cloudy
8:15 PM 46.4°F 41.0°F 81% 29.55 in 10.0 miles South 12.7 mph 23.0 mph N/A   Mostly Cloudy
8:35 PM 46.4°F 41.0°F 81% 29.57 in 10.0 miles South 9.2 mph 19.6 mph N/A   Overcast
8:55 PM 46.4°F 41.0°F 81% 29.58 in 10.0 miles South 10.4 mph 20.7 mph N/A   Overcast
9:15 PM 46.4°F 41.0°F 81% 29.59 in 9.0 miles South 6.9 mph 19.6 mph N/A Rain Light Rain
9:35 PM 46.4°F 42.8°F 87% 29.59 in 10.0 miles South 6.9 mph - N/A Rain Light Rain
9:55 PM 44.6°F 41.0°F 87% 29.59 in 10.0 miles SSE 5.8 mph - N/A   Scattered Clouds
10:15 PM 46.4°F 41.0°F 81% 29.60 in 10.0 miles South 6.9 mph - N/A   Mostly Cloudy
10:35 PM 46.4°F 41.0°F 81% 29.60 in 10.0 miles South 5.8 mph - N/A   Mostly Cloudy
10:55 PM 44.6°F 41.0°F 87% 29.61 in 10.0 miles South 4.6 mph - N/A   Mostly Cloudy
11:15 PM 44.6°F 41.0°F 87% 29.61 in 10.0 miles South 6.9 mph - N/A   Mostly Cloudy
11:35 PM 44.6°F 41.0°F 87% 29.62 in 10.0 miles South 6.9 mph - N/A   Mostly Cloudy
11:55 PM 44.6°F 41.0°F 87% 29.62 in 10.0 miles South 9.2 mph - N/A   Scattered Clouds
Moon Phase
Nov. 17 Nov. 20 Nov. 28 Dec. 06 Dec. 13
Sunrise:07:24 AM (PST) Moon Rise:11:12 AM (PST)
Sunset:04:28 PM (PST) Moon Set:08:47 PM (PST)

Copyright © 2014 The Weather Underground, Inc.